Regional Weather Roundup
Issued by NWS

Home | Current Version | Previous Version | Graphics & Text | Print | Product List | Glossary On
Versions: 1 2 3 4 5 6 7 8 9 10 11 12 13 14 15 16 17 18 19 20 21 22 23 24 25 26 27 28 29 30 31 32 33 34 35 36 37 38 39 40 41 42 43 44 45 46 47 48 49 50
000
ASUS43 KIND 241059
RWRIN

WEATHER ROUNDUP FOR INDIANA
NATIONAL WEATHER SERVICE INDIANAPOLIS IN
700 AM EDT SUN JUL 24 2016

NOTE: "FAIR" INDICATES FEW OR NO CLOUDS BELOW 12,000 FEET WITH NO
SIGNIFICANT WEATHER AND/OR OBSTRUCTIONS TO VISIBILITY.

* - STATION DOES NOT REPORT WEATHER SUCH AS PRECIPITATION OR FOG.

+ - STATION NOT QUALITY CONTROLLED BY THE NATIONAL WEATHER SERVICE.
    USE DATA WITH CAUTION...ESPECIALLY DEWPOINT AND RELATIVE
    HUMIDITY OBSERVATIONS.

INZ001>003-010>013-019-020-241200-
NORTHWEST INDIANA

CITY           SKY/WX    TMP DP  RH WIND       PRES   REMARKS
GARY /AIRPORT/ MOCLDY    72 N/A N/A S7        29.93R
KNOX *+        CLOUDY    70  68  94 S6        29.95S
MONTICELLO +   PTCLDY    71  66  83 SE3       29.96S

$$

LMZ046-743>745-241200-
SOUTHERN LAKE MICHIGAN

STATION/POSITION TIME  TEMP    WIND        PRES    WAVE
                       AIR SEA DIR/SP/G            HT
                 (UTC) (F)     (DEG/KT/KT) (MB)    (FT)
BURNS HARBOR     1004   72     190/  7/ 10 1013.9R
MICHIGAN CITY    1000   73     130/  9/ 10   N/A
5NW MICH CITY    1000   74 73  180/  8/ 10   N/A     1

$$

INZ004-005-014>016-021>024-241200-
NORTH CENTRAL INDIANA

CITY           SKY/WX    TMP DP  RH WIND       PRES   REMARKS
GOSHEN         CLOUDY    72  68  87 SW9       29.95F
SOUTH BEND     CLOUDY    70  70 100 SW6       29.95S

$$

INZ006>009-017-018-025>027-241200-
NORTHEAST INDIANA

CITY           SKY/WX    TMP DP  RH WIND       PRES   REMARKS
ANGOLA *+      MOCLDY    72  64  78 CALM      29.97S
FORT WAYNE     CLOUDY    72  69  90 SW7       29.97R

$$

INZ028-029-035-036-043>045-051>053-241200-
WEST CENTRAL INDIANA

CITY           SKY/WX    TMP DP  RH WIND       PRES   REMARKS
CRAWFORDSVL +  PTCLDY    70  70 100 E3        29.99R
LAFAYETTE      CLOUDY    70  69  97 E3        29.97R
TERRE HAUTE    PTCLDY    75  72  90 SE3       29.97S FOG

$$

INZ030>032-037>040-046>048-054>057-064-065-241200-
CENTRAL INDIANA

CITY           SKY/WX    TMP DP  RH WIND       PRES   REMARKS
COLUMBUS       CLEAR     72  72 100 SE3       29.99
INDIANAPOLIS   CLOUDY    78  71  79 E9        29.99S
-EAGLE CREEK   CLOUDY    77  67  71 E7        29.99R
KOKOMO *+      CLOUDY    70  66  88 S6        29.99S
SHELBYVILLE    CLOUDY    75  71  87 E5        29.99S

$$

INZ033-034-041-042-049-050-058-059-241200-
EAST CENTRAL INDIANA

CITY           SKY/WX    TMP DP  RH WIND       PRES   REMARKS
MUNCIE         CLEAR     74  69  85 S3        30.00S

$$

INZ060-061-067>069-081>083-085>088-241200-
SOUTHWEST INDIANA

CITY           SKY/WX    TMP DP  RH WIND       PRES   REMARKS
EVANSVILLE     CLEAR     76  75  97 CALM      29.97R FOG
HUNTINGBURG *+ CLEAR     75  72  88 CALM      29.98R VSB 1

$$

INZ062-063-066-070>080-084-089>092-241200-
SOUTH CENTRAL AND SOUTHEAST INDIANA

CITY           SKY/WX    TMP DP  RH WIND       PRES   REMARKS
BLOOMINGTON    FOG       73  71  93 CALM      29.99S VSB 1/4
MADISON *+       N/A     73  72  94 CALM      30.02S
SEYMOUR +      FOG       73  73 100 CALM      29.99R VSB 3/4

$$





USA.gov is the U.S. government's official web portal to all federal, state and local government web resources and services.